VSP202 SBPP-SBDN

Flight info

Callsign VSP202
Flight time 1h 31m
Altitude 13000
Route DCT PRR
Aircraft DC3/L-V/N

Departure

Time 2026-05-06 18:30
Airport Ponta Porã Airport (SBPP)

Arrival

Time 2026-05-06 20:02
Airport Presidente Prudente Airport (SBDN)
Time Latitude Longitude Altitude Speed Heading
2026-05-06 18:05 -22.55212 -55.70536 2150 ft 0 kts 200°
2026-05-06 18:06 -22.55211 -55.70536 2150 ft 0 kts 200°
2026-05-06 18:08 -22.55210 -55.70536 2150 ft 0 kts 200°
2026-05-06 18:09 -22.55209 -55.70535 2150 ft 0 kts 200°
2026-05-06 18:12 -22.55208 -55.70535 2149 ft 0 kts 200°
2026-05-06 18:12 -22.55210 -55.70536 2150 ft 1 kts 192°
2026-05-06 18:12 -22.55219 -55.70530 2150 ft 2 kts 93°
2026-05-06 18:12 -22.55199 -55.70524 2149 ft 7 kts 340°
2026-05-06 18:13 -22.55153 -55.70503 2148 ft 9 kts 73°
2026-05-06 18:13 -22.55173 -55.70425 2148 ft 13 kts 112°
2026-05-06 18:13 -22.55153 -55.70347 2148 ft 13 kts 19°
2026-05-06 18:13 -22.55061 -55.70312 2146 ft 15 kts 19°
2026-05-06 18:14 -22.54955 -55.70272 2142 ft 17 kts 19°
2026-05-06 18:14 -22.54838 -55.70225 2139 ft 18 kts 20°
2026-05-06 18:14 -22.54716 -55.70175 2136 ft 19 kts 21°
2026-05-06 18:14 -22.54588 -55.70120 2134 ft 20 kts 22°
2026-05-06 18:15 -22.54459 -55.70059 2133 ft 20 kts 24°
2026-05-06 18:15 -22.54328 -55.70009 2131 ft 20 kts 15°
2026-05-06 18:15 -22.54192 -55.69966 2129 ft 14 kts 13°
2026-05-06 18:15 -22.54127 -55.69981 2128 ft 8 kts 36°
2026-05-06 18:16 -22.54151 -55.69946 2128 ft 10 kts 198°
2026-05-06 18:16 -22.54170 -55.69954 2128 ft 0 kts 202°
2026-05-06 18:18 -22.54169 -55.69954 2128 ft 0 kts 202°
2026-05-06 18:19 -22.54169 -55.69953 2128 ft 0 kts 202°
2026-05-06 18:20 -22.54234 -55.69984 2130 ft 26 kts 204°
2026-05-06 18:20 -22.54533 -55.70085 2134 ft 62 kts 176°
2026-05-06 18:20 -22.55051 -55.70226 2186 ft 86 kts 197°
2026-05-06 18:21 -22.55514 -55.70400 2409 ft 64 kts 188°
2026-05-06 18:21 -22.55711 -55.70385 2151 ft 0 kts 354°
2026-05-06 18:22 -22.55239 -55.70547 2150 ft 0 kts 200°
2026-05-06 18:24 -22.55238 -55.70547 2150 ft 0 kts 200°
2026-05-06 18:25 -22.55241 -55.70548 2150 ft 3 kts 171°
2026-05-06 18:26 -22.55291 -55.70502 2151 ft 17 kts 143°
2026-05-06 18:26 -22.55429 -55.70537 2152 ft 23 kts 200°
2026-05-06 18:26 -22.55471 -55.70473 2151 ft 11 kts 45°
2026-05-06 18:26 -22.55443 -55.70458 2155 ft 0 kts 22°
2026-05-06 18:27 -22.55438 -55.70456 2155 ft 0 kts 22°
2026-05-06 18:28 -22.55439 -55.70456 2155 ft 0 kts 22°
2026-05-06 18:29 -22.55436 -55.70455 2155 ft 3 kts 24°
2026-05-06 18:29 -22.55340 -55.70410 2153 ft 32 kts 22°
2026-05-06 18:29 -22.54989 -55.70270 2148 ft 74 kts 22°
2026-05-06 18:29 -22.54439 -55.70064 2227 ft 95 kts 22°
2026-05-06 18:30 -22.53828 -55.69633 2331 ft 115 kts 47°
2026-05-06 18:30 -22.53502 -55.68839 2490 ft 121 kts 78°
2026-05-06 18:30 -22.53579 -55.67907 2653 ft 129 kts 94°
2026-05-06 18:30 -22.53730 -55.66963 2993 ft 124 kts 90°
2026-05-06 18:31 -22.53846 -55.66045 3345 ft 116 kts 85°
2026-05-06 18:31 -22.53879 -55.65316 3960 ft 68 kts 72°
2026-05-06 18:31 -22.53927 -55.64825 4064 ft 81 kts 84°
2026-05-06 18:31 -22.54031 -55.64177 4136 ft 89 kts 84°
2026-05-06 18:32 -22.54135 -55.63469 4282 ft 105 kts 91°
2026-05-06 18:32 -22.54307 -55.62672 4546 ft 115 kts 92°
2026-05-06 18:32 -22.54441 -55.61792 4726 ft 120 kts 86°
2026-05-06 18:32 -22.54587 -55.60867 4942 ft 129 kts 96°
2026-05-06 18:33 -22.54841 -55.59960 5281 ft 125 kts 98°
2026-05-06 18:33 -22.55111 -55.59073 5652 ft 125 kts 97°
2026-05-06 18:33 -22.55341 -55.58179 6034 ft 119 kts 92°
2026-05-06 18:33 -22.55471 -55.57321 6324 ft 117 kts 90°
2026-05-06 18:34 -22.55598 -55.56419 6405 ft 129 kts 86°
2026-05-06 18:34 -22.55600 -55.55370 6330 ft 148 kts 78°
2026-05-06 18:34 -22.55442 -55.54217 6339 ft 161 kts 71°
2026-05-06 18:34 -22.55130 -55.53024 6379 ft 168 kts 66°
2026-05-06 18:35 -22.54696 -55.51841 6516 ft 169 kts 60°
2026-05-06 18:35 -22.54172 -55.50712 6627 ft 167 kts 57°
2026-05-06 18:35 -22.53680 -55.49563 6767 ft 170 kts 62°
2026-05-06 18:35 -22.53242 -55.48374 6867 ft 171 kts 66°
2026-05-06 18:36 -22.52893 -55.47151 6999 ft 173 kts 71°
2026-05-06 18:36 -22.52657 -55.45862 7126 ft 175 kts 77°
2026-05-06 18:36 -22.52574 -55.44542 7230 ft 178 kts 86°
2026-05-06 18:36 -22.52692 -55.43202 7349 ft 179 kts 91°
2026-05-06 18:37 -22.52876 -55.41864 7452 ft 180 kts 94°
2026-05-06 18:37 -22.53036 -55.40982 7529 ft 181 kts 96°
2026-05-06 18:37 -22.53452 -55.39214 7681 ft 182 kts 100°
2026-05-06 18:37 -22.53757 -55.37888 7770 ft 181 kts 98°
2026-05-06 18:38 -22.54043 -55.36559 7880 ft 181 kts 98°
2026-05-06 18:38 -22.54340 -55.35232 8012 ft 182 kts 99°
2026-05-06 18:38 -22.54643 -55.33923 8126 ft 181 kts 99°
2026-05-06 18:38 -22.54944 -55.32596 8224 ft 182 kts 99°
2026-05-06 18:39 -22.55251 -55.31271 8357 ft 182 kts 99°
2026-05-06 18:39 -22.55563 -55.29947 8461 ft 181 kts 99°
2026-05-06 18:39 -22.55871 -55.28623 8552 ft 181 kts 99°
2026-05-06 18:40 -22.56200 -55.25968 8725 ft 176 kts 79°
2026-05-06 18:40 -22.55911 -55.24695 8807 ft 173 kts 65°
2026-05-06 18:40 -22.55303 -55.23583 8907 ft 170 kts 48°
2026-05-06 18:40 -22.54669 -55.22564 9047 ft 167 kts 67°
2026-05-06 18:41 -22.54555 -55.21214 8695 ft 195 kts 89°
2026-05-06 18:41 -22.54720 -55.19726 8636 ft 200 kts 101°
2026-05-06 18:41 -22.55419 -55.18439 8637 ft 207 kts 131°
2026-05-06 18:41 -22.56669 -55.17641 8627 ft 212 kts 160°
2026-05-06 18:42 -22.58056 -55.17361 8989 ft 173 kts 145°
2026-05-06 18:42 -22.58510 -55.16332 9206 ft 158 kts 93°
2026-05-06 18:42 -22.58663 -55.15072 8981 ft 177 kts 94°
2026-05-06 18:42 -22.58704 -55.13772 9059 ft 175 kts 86°
2026-05-06 18:43 -22.58721 -55.12410 8986 ft 185 kts 87°
2026-05-06 18:43 -22.58730 -55.11036 9184 ft 178 kts 85°
2026-05-06 18:43 -22.58828 -55.09690 9193 ft 183 kts 101°
2026-05-06 18:43 -22.59514 -55.08509 9226 ft 191 kts 132°
2026-05-06 18:44 -22.60697 -55.07830 9241 ft 195 kts 160°
2026-05-06 18:44 -22.61924 -55.07255 9268 ft 191 kts 141°
2026-05-06 18:44 -22.62718 -55.06166 9280 ft 187 kts 113°
2026-05-06 18:44 -22.63313 -55.04909 9283 ft 189 kts 112°
2026-05-06 18:45 -22.63909 -55.03634 9331 ft 191 kts 112°
2026-05-06 18:45 -22.64510 -55.02347 9372 ft 192 kts 113°
2026-05-06 18:45 -22.65110 -55.01053 9411 ft 193 kts 112°
2026-05-06 18:45 -22.65506 -55.00193 9462 ft 193 kts 112°
2026-05-06 18:46 -22.66092 -54.98885 9507 ft 193 kts 111°
2026-05-06 18:46 -22.66648 -54.97559 9543 ft 194 kts 110°
2026-05-06 18:46 -22.67161 -54.96211 9559 ft 193 kts 107°
2026-05-06 18:46 -22.67615 -54.94846 9548 ft 191 kts 104°
2026-05-06 18:47 -22.68005 -54.93475 9556 ft 189 kts 102°
2026-05-06 18:47 -22.68328 -54.92096 9567 ft 188 kts 99°
2026-05-06 18:47 -22.68597 -54.90715 9582 ft 187 kts 96°
2026-05-06 18:47 -22.68808 -54.89332 9581 ft 185 kts 94°
2026-05-06 18:48 -22.68939 -54.87968 9610 ft 184 kts 90°
2026-05-06 18:48 -22.69007 -54.86587 9611 ft 183 kts 88°
2026-05-06 18:48 -22.68806 -54.85264 9586 ft 178 kts 62°
2026-05-06 18:48 -22.67958 -54.84345 9586 ft 172 kts 31°
2026-05-06 18:49 -22.66974 -54.83624 9607 ft 165 kts 42°
2026-05-06 18:49 -22.66634 -54.82455 9579 ft 172 kts 82°
2026-05-06 18:49 -22.66574 -54.81115 9513 ft 179 kts 83°
2026-05-06 18:49 -22.66446 -54.79768 9505 ft 180 kts 78°
2026-05-06 18:50 -22.66221 -54.78430 9505 ft 181 kts 73°
2026-05-06 18:50 -22.65937 -54.77098 9490 ft 182 kts 76°
2026-05-06 18:50 -22.65744 -54.75740 9489 ft 182 kts 77°
2026-05-06 18:50 -22.65460 -54.74421 9498 ft 182 kts 71°
2026-05-06 18:51 -22.65093 -54.73114 9470 ft 182 kts 70°
2026-05-06 18:51 -22.64743 -54.71794 9483 ft 183 kts 71°
2026-05-06 18:51 -22.64403 -54.70466 9469 ft 183 kts 71°
2026-05-06 18:51 -22.64094 -54.69130 9445 ft 183 kts 73°
2026-05-06 18:52 -22.63821 -54.67783 9460 ft 183 kts 75°
2026-05-06 18:52 -22.63591 -54.66427 9465 ft 183 kts 77°
2026-05-06 18:52 -22.63420 -54.65055 9489 ft 184 kts 79°
2026-05-06 18:52 -22.63262 -54.63682 9511 ft 183 kts 80°
2026-05-06 18:53 -22.63086 -54.62317 9543 ft 183 kts 78°
2026-05-06 18:53 -22.62896 -54.60958 9566 ft 183 kts 78°
2026-05-06 18:53 -22.62704 -54.59596 9581 ft 183 kts 78°
2026-05-06 18:53 -22.62550 -54.58243 9582 ft 184 kts 80°
2026-05-06 18:54 -22.62445 -54.56860 9604 ft 184 kts 82°
2026-05-06 18:54 -22.62356 -54.55475 9604 ft 185 kts 82°
2026-05-06 18:54 -22.62272 -54.54088 9609 ft 184 kts 83°
2026-05-06 18:54 -22.62200 -54.52699 9608 ft 185 kts 82°
2026-05-06 18:55 -22.62110 -54.51315 9611 ft 184 kts 82°
2026-05-06 18:55 -22.62005 -54.49935 9606 ft 184 kts 81°
2026-05-06 18:55 -22.61888 -54.48555 9615 ft 184 kts 81°
2026-05-06 18:55 -22.61761 -54.47174 9606 ft 184 kts 80°
2026-05-06 18:56 -22.61615 -54.45799 9595 ft 184 kts 79°
2026-05-06 18:56 -22.61457 -54.44446 9573 ft 183 kts 78°
2026-05-06 18:56 -22.61280 -54.43081 9587 ft 183 kts 78°
2026-05-06 18:56 -22.61101 -54.41716 9585 ft 183 kts 78°
2026-05-06 18:57 -22.60904 -54.40358 9587 ft 182 kts 77°
2026-05-06 18:57 -22.60690 -54.39009 9573 ft 182 kts 76°
2026-05-06 18:57 -22.60463 -54.37657 9565 ft 182 kts 76°
2026-05-06 18:57 -22.60210 -54.36315 9554 ft 182 kts 75°
2026-05-06 18:58 -22.59941 -54.34980 9557 ft 181 kts 73°
2026-05-06 18:58 -22.59649 -54.33653 9567 ft 181 kts 72°
2026-05-06 18:58 -22.59346 -54.32331 9593 ft 180 kts 72°
2026-05-06 18:58 -22.59015 -54.31036 9594 ft 180 kts 71°
2026-05-06 18:59 -22.58663 -54.29736 9608 ft 180 kts 70°
2026-05-06 18:59 -22.58383 -54.28418 9598 ft 181 kts 79°
2026-05-06 18:59 -22.58258 -54.27060 9605 ft 181 kts 81°
2026-05-06 18:59 -22.58165 -54.25697 9600 ft 182 kts 82°
2026-05-06 19:00 -22.58086 -54.24325 9600 ft 182 kts 83°
2026-05-06 19:00 -22.58017 -54.22955 9607 ft 183 kts 83°
2026-05-06 19:00 -22.57959 -54.21582 9595 ft 183 kts 84°
2026-05-06 19:00 -22.57898 -54.20209 9607 ft 183 kts 83°
2026-05-06 19:01 -22.57836 -54.18851 9621 ft 182 kts 83°
2026-05-06 19:01 -22.57771 -54.17481 9618 ft 182 kts 83°
2026-05-06 19:01 -22.57707 -54.16116 9617 ft 182 kts 84°
2026-05-06 19:01 -22.57650 -54.14745 9609 ft 182 kts 84°
2026-05-06 19:02 -22.57588 -54.13379 9620 ft 182 kts 83°
2026-05-06 19:02 -22.57527 -54.12008 9634 ft 182 kts 84°
2026-05-06 19:02 -22.57464 -54.10640 9641 ft 182 kts 84°
2026-05-06 19:02 -22.57406 -54.09270 9640 ft 182 kts 83°
2026-05-06 19:03 -22.57342 -54.07902 9674 ft 182 kts 83°
2026-05-06 19:03 -22.57273 -54.06554 9669 ft 182 kts 84°
2026-05-06 19:03 -22.57212 -54.05185 9673 ft 182 kts 84°
2026-05-06 19:03 -22.57150 -54.03820 9690 ft 181 kts 83°
2026-05-06 19:04 -22.57083 -54.02455 9697 ft 181 kts 83°
2026-05-06 19:04 -22.57022 -54.01109 9808 ft 177 kts 83°
2026-05-06 19:04 -22.56963 -53.99792 9890 ft 174 kts 83°
2026-05-06 19:04 -22.56899 -53.98491 9941 ft 172 kts 83°
2026-05-06 19:05 -22.56848 -53.97201 10021 ft 173 kts 84°
2026-05-06 19:05 -22.56794 -53.95898 10140 ft 173 kts 83°
2026-05-06 19:05 -22.56730 -53.94595 10259 ft 173 kts 83°
2026-05-06 19:05 -22.56670 -53.93311 10361 ft 173 kts 83°
2026-05-06 19:06 -22.56615 -53.92008 10475 ft 173 kts 83°
2026-05-06 19:06 -22.56561 -53.90706 10601 ft 173 kts 83°
2026-05-06 19:06 -22.56504 -53.89399 10734 ft 173 kts 84°
2026-05-06 19:06 -22.56444 -53.88099 10855 ft 173 kts 83°
2026-05-06 19:07 -22.56386 -53.86797 10954 ft 173 kts 83°
2026-05-06 19:07 -22.56328 -53.85486 11006 ft 177 kts 83°
2026-05-06 19:07 -22.56271 -53.84142 11033 ft 181 kts 83°
2026-05-06 19:07 -22.56206 -53.82763 11029 ft 186 kts 83°
2026-05-06 19:08 -22.56146 -53.81348 11017 ft 190 kts 83°
2026-05-06 19:08 -22.56076 -53.79913 11004 ft 192 kts 83°
2026-05-06 19:08 -22.56008 -53.78463 11012 ft 194 kts 83°
2026-05-06 19:08 -22.55932 -53.76999 11024 ft 195 kts 83°
2026-05-06 19:09 -22.55860 -53.75531 11018 ft 196 kts 83°
2026-05-06 19:09 -22.55787 -53.74072 11030 ft 197 kts 83°
2026-05-06 19:09 -22.55712 -53.72590 11058 ft 197 kts 83°
2026-05-06 19:09 -22.55640 -53.71103 11052 ft 198 kts 83°
2026-05-06 19:10 -22.55563 -53.69616 11043 ft 198 kts 83°
2026-05-06 19:10 -22.55490 -53.68127 11049 ft 199 kts 83°
2026-05-06 19:10 -22.55415 -53.66631 11047 ft 199 kts 83°
2026-05-06 19:10 -22.55340 -53.65134 11058 ft 199 kts 83°
2026-05-06 19:11 -22.55263 -53.63635 11072 ft 199 kts 83°
2026-05-06 19:11 -22.55185 -53.62139 11080 ft 199 kts 83°
2026-05-06 19:11 -22.55105 -53.60640 11078 ft 200 kts 83°
2026-05-06 19:11 -22.55016 -53.59140 11080 ft 200 kts 82°
2026-05-06 19:12 -22.54901 -53.57641 11098 ft 200 kts 81°
2026-05-06 19:12 -22.54750 -53.56150 11114 ft 199 kts 79°
2026-05-06 19:12 -22.54549 -53.54667 11126 ft 199 kts 77°
2026-05-06 19:12 -22.54324 -53.53189 11130 ft 199 kts 77°
2026-05-06 19:13 -22.54092 -53.51730 11125 ft 199 kts 76°
2026-05-06 19:13 -22.53836 -53.50260 11119 ft 199 kts 75°
2026-05-06 19:13 -22.53554 -53.48794 11111 ft 199 kts 74°
2026-05-06 19:13 -22.53255 -53.47333 11104 ft 199 kts 73°
2026-05-06 19:14 -22.52935 -53.45878 11112 ft 198 kts 73°
2026-05-06 19:14 -22.52595 -53.44431 11117 ft 198 kts 72°
2026-05-06 19:14 -22.52233 -53.42992 11112 ft 198 kts 71°
2026-05-06 19:14 -22.51851 -53.41560 11098 ft 198 kts 70°
2026-05-06 19:15 -22.51450 -53.40156 11102 ft 198 kts 70°
2026-05-06 19:15 -22.51053 -53.38730 11104 ft 198 kts 70°
2026-05-06 19:15 -22.50646 -53.37309 11100 ft 197 kts 69°
2026-05-06 19:15 -22.50215 -53.35905 11105 ft 197 kts 68°
2026-05-06 19:16 -22.49762 -53.34505 11117 ft 197 kts 67°
2026-05-06 19:16 -22.49290 -53.33113 11141 ft 197 kts 66°
2026-05-06 19:16 -22.48808 -53.31728 11146 ft 197 kts 66°
2026-05-06 19:16 -22.48319 -53.30346 11180 ft 196 kts 66°
2026-05-06 19:17 -22.47823 -53.28969 11189 ft 196 kts 65°
2026-05-06 19:17 -22.47307 -53.27597 11190 ft 196 kts 64°
2026-05-06 19:17 -22.46777 -53.26259 11229 ft 196 kts 63°
2026-05-06 19:17 -22.46219 -53.24911 11226 ft 195 kts 63°
2026-05-06 19:18 -22.45649 -53.23582 11222 ft 195 kts 62°
2026-05-06 19:18 -22.45061 -53.22261 11219 ft 195 kts 61°
2026-05-06 19:18 -22.44460 -53.20947 11223 ft 194 kts 61°
2026-05-06 19:18 -22.43847 -53.19646 11225 ft 194 kts 60°
2026-05-06 19:19 -22.43225 -53.18349 11239 ft 194 kts 60°
2026-05-06 19:19 -22.42597 -53.17080 11234 ft 194 kts 59°
2026-05-06 19:19 -22.41939 -53.15788 11239 ft 194 kts 58°
2026-05-06 19:19 -22.41275 -53.14522 11247 ft 194 kts 58°
2026-05-06 19:20 -22.40607 -53.13278 11239 ft 193 kts 58°
2026-05-06 19:20 -22.39923 -53.12024 11240 ft 193 kts 57°
2026-05-06 19:20 -22.39240 -53.10774 11254 ft 192 kts 57°
2026-05-06 19:20 -22.38562 -53.09544 11247 ft 189 kts 57°
2026-05-06 19:21 -22.37880 -53.08341 11229 ft 187 kts 56°
2026-05-06 19:21 -22.37201 -53.07149 11212 ft 186 kts 57°
2026-05-06 19:21 -22.36526 -53.05965 11183 ft 184 kts 56°
2026-05-06 19:21 -22.35847 -53.04793 11175 ft 184 kts 56°
2026-05-06 19:22 -22.35162 -53.03630 11161 ft 183 kts 55°
2026-05-06 19:22 -22.34474 -53.02495 11139 ft 182 kts 54°
2026-05-06 19:22 -22.33761 -53.01364 11120 ft 182 kts 53°
2026-05-06 19:22 -22.33033 -53.00242 11114 ft 182 kts 53°
2026-05-06 19:23 -22.32296 -52.99136 11124 ft 181 kts 52°
2026-05-06 19:23 -22.31549 -52.98036 11101 ft 181 kts 52°
2026-05-06 19:23 -22.30792 -52.96945 11075 ft 181 kts 51°
2026-05-06 19:23 -22.30025 -52.95869 11051 ft 181 kts 51°
2026-05-06 19:24 -22.29246 -52.94801 11030 ft 181 kts 50°
2026-05-06 19:24 -22.28456 -52.93742 11014 ft 181 kts 50°
2026-05-06 19:24 -22.27656 -52.92692 10998 ft 181 kts 49°
2026-05-06 19:24 -22.26850 -52.91651 10997 ft 181 kts 49°
2026-05-06 19:25 -22.26032 -52.90613 10975 ft 181 kts 48°
2026-05-06 19:25 -22.25206 -52.89588 10971 ft 181 kts 48°
2026-05-06 19:25 -22.24375 -52.88569 10945 ft 181 kts 47°
2026-05-06 19:25 -22.23542 -52.87573 10946 ft 181 kts 47°
2026-05-06 19:26 -22.22691 -52.86578 10933 ft 180 kts 46°
2026-05-06 19:26 -22.21816 -52.85604 10908 ft 180 kts 45°
2026-05-06 19:26 -22.20925 -52.84653 10903 ft 180 kts 44°
2026-05-06 19:26 -22.20026 -52.83713 10894 ft 180 kts 44°
2026-05-06 19:27 -22.19123 -52.82776 10878 ft 179 kts 44°
2026-05-06 19:27 -22.18460 -52.81657 10816 ft 182 kts 72°
2026-05-06 19:27 -22.18567 -52.80292 10777 ft 192 kts 109°
2026-05-06 19:27 -22.19473 -52.79221 10729 ft 202 kts 146°
2026-05-06 19:28 -22.20861 -52.78926 10700 ft 210 kts 182°
2026-05-06 19:28 -22.22213 -52.79488 10663 ft 205 kts 209°
2026-05-06 19:28 -22.23569 -52.79667 10654 ft 199 kts 161°
2026-05-06 19:28 -22.24641 -52.78835 10688 ft 188 kts 120°
2026-05-06 19:29 -22.24943 -52.77546 10684 ft 178 kts 81°
2026-05-06 19:29 -22.24740 -52.76227 10648 ft 180 kts 75°
2026-05-06 19:29 -22.24420 -52.74915 10606 ft 181 kts 68°
2026-05-06 19:29 -22.23956 -52.73671 10689 ft 174 kts 68°
2026-05-06 19:30 -22.23711 -52.72369 10597 ft 181 kts 79°
2026-05-06 19:30 -22.23552 -52.71010 10592 ft 181 kts 78°
2026-05-06 19:30 -22.23308 -52.69696 10655 ft 177 kts 71°
2026-05-06 19:30 -22.22872 -52.68476 10611 ft 178 kts 60°
2026-05-06 19:31 -22.22143 -52.67395 10551 ft 179 kts 44°
2026-05-06 19:31 -22.21251 -52.66484 10546 ft 176 kts 49°
2026-05-06 19:31 -22.20526 -52.64007 10545 ft 181 kts 87°
2026-05-06 19:32 -22.20553 -52.62636 10462 ft 185 kts 86°
2026-05-06 19:32 -22.20484 -52.61252 10451 ft 183 kts 79°
2026-05-06 19:32 -22.20140 -52.59952 10409 ft 179 kts 57°
2026-05-06 19:32 -22.19350 -52.58937 10380 ft 176 kts 46°
2026-05-06 19:33 -22.18794 -52.58299 10400 ft 175 kts 45°
2026-05-06 19:33 -22.17937 -52.57391 10466 ft 171 kts 42°
2026-05-06 19:33 -22.16727 -52.56322 10529 ft 167 kts 27°
2026-05-06 19:33 -22.15645 -52.55956 10559 ft 163 kts 21°
2026-05-06 19:34 -22.15003 -52.55521 10562 ft 164 kts 43°
2026-05-06 19:34 -22.14114 -52.54210 10638 ft 163 kts 53°
2026-05-06 19:34 -22.13645 -52.53560 10675 ft 161 kts 44°
2026-05-06 19:34 -22.12699 -52.52901 10633 ft 165 kts 29°
2026-05-06 19:35 -22.11668 -52.52345 10666 ft 165 kts 24°
2026-05-06 19:35 -22.10610 -52.51931 10765 ft 163 kts 19°
2026-05-06 19:35 -22.09499 -52.51606 10789 ft 166 kts 14°
2026-05-06 19:35 -22.08383 -52.51371 10824 ft 163 kts 17°
2026-05-06 19:36 -22.07389 -52.50805 10828 ft 165 kts 39°
2026-05-06 19:36 -22.06671 -52.49848 10910 ft 163 kts 62°
2026-05-06 19:36 -22.06414 -52.48680 11068 ft 160 kts 83°
2026-05-06 19:36 -22.06386 -52.47445 10950 ft 172 kts 84°
2026-05-06 19:37 -22.06263 -52.46128 10891 ft 176 kts 77°
2026-05-06 19:37 -22.06065 -52.44860 10978 ft 172 kts 78°
2026-05-06 19:37 -22.05865 -52.43588 11020 ft 171 kts 75°
2026-05-06 19:37 -22.05339 -52.42521 11019 ft 165 kts 39°
2026-05-06 19:38 -22.04295 -52.42054 11072 ft 163 kts 13°
2026-05-06 19:38 -22.03181 -52.41785 11046 ft 166 kts 18°
2026-05-06 19:38 -22.02066 -52.41444 11016 ft 170 kts 16°
2026-05-06 19:38 -22.00914 -52.41200 11094 ft 166 kts 11°
2026-05-06 19:39 -21.99766 -52.41031 11130 ft 168 kts
2026-05-06 19:39 -21.98575 -52.41017 11091 ft 172 kts 359°
2026-05-06 19:39 -21.97386 -52.41062 11153 ft 170 kts
2026-05-06 19:39 -21.96203 -52.41137 11185 ft 170 kts 359°
2026-05-06 19:40 -21.95064 -52.41032 11265 ft 161 kts 22°
2026-05-06 19:40 -21.94256 -52.40230 11216 ft 166 kts 61°
2026-05-06 19:40 -21.94057 -52.38953 11072 ft 176 kts 84°
2026-05-06 19:40 -21.93998 -52.37681 11219 ft 168 kts 82°
2026-05-06 19:41 -21.93906 -52.36437 11226 ft 170 kts 85°
2026-05-06 19:41 -21.93893 -52.35127 11128 ft 178 kts 86°
2026-05-06 19:41 -21.93837 -52.33821 11254 ft 168 kts 84°
2026-05-06 19:41 -21.93996 -52.32574 11287 ft 171 kts 98°
2026-05-06 19:42 -21.94252 -52.31279 11165 ft 180 kts 96°
2026-05-06 19:42 -21.94403 -52.29943 11158 ft 180 kts 89°
2026-05-06 19:42 -21.94344 -52.28603 11139 ft 179 kts 78°
2026-05-06 19:42 -21.94053 -52.27302 11128 ft 178 kts 70°
2026-05-06 19:43 -21.93791 -52.26020 11091 ft 181 kts 83°
2026-05-06 19:43 -21.93971 -52.24681 11130 ft 181 kts 104°
2026-05-06 19:43 -21.94410 -52.23392 11087 ft 186 kts 106°
2026-05-06 19:43 -21.94841 -52.22078 11089 ft 186 kts 103°
2026-05-06 19:44 -21.95166 -52.20741 11083 ft 184 kts 102°
2026-05-06 19:44 -21.95629 -52.19449 11075 ft 185 kts 108°
2026-05-06 19:44 -21.96110 -52.18159 11079 ft 186 kts 106°
2026-05-06 19:44 -21.96609 -52.16865 11046 ft 189 kts 111°
2026-05-06 19:45 -21.97182 -52.15584 11036 ft 189 kts 110°
2026-05-06 19:45 -21.97707 -52.14295 11093 ft 186 kts 109°
2026-05-06 19:45 -21.98171 -52.13023 11087 ft 185 kts 107°
2026-05-06 19:45 -21.98681 -52.11733 11042 ft 189 kts 109°
2026-05-06 19:46 -21.99175 -52.10422 11042 ft 189 kts 106°
2026-05-06 19:46 -21.99571 -52.09076 11019 ft 188 kts 101°
2026-05-06 19:46 -21.99832 -52.07704 11000 ft 186 kts 95°
2026-05-06 19:46 -21.99956 -52.06317 10983 ft 185 kts 89°
2026-05-06 19:47 -21.99945 -52.04933 10967 ft 184 kts 83°
2026-05-06 19:47 -21.99787 -52.03569 10929 ft 183 kts 76°
2026-05-06 19:47 -21.99489 -52.02238 10916 ft 182 kts 71°
2026-05-06 19:47 -21.99073 -52.00952 10918 ft 181 kts 66°
2026-05-06 19:48 -21.98671 -51.99680 10863 ft 183 kts 81°
2026-05-06 19:48 -21.98868 -51.98268 10586 ft 201 kts 103°
2026-05-06 19:48 -21.99275 -51.96877 10557 ft 194 kts 103°
2026-05-06 19:48 -21.99660 -51.95444 10274 ft 201 kts 100°
2026-05-06 19:49 -21.99944 -51.93990 10156 ft 196 kts 96°
2026-05-06 19:49 -22.00166 -51.92543 9891 ft 197 kts 93°
2026-05-06 19:49 -22.00270 -51.91034 9385 ft 204 kts 87°
2026-05-06 19:49 -22.00185 -51.89591 9201 ft 183 kts 79°
2026-05-06 19:50 -22.00200 -51.88221 8772 ft 184 kts 96°
2026-05-06 19:50 -22.00657 -51.86966 8487 ft 179 kts 113°
2026-05-06 19:50 -22.01219 -51.85806 8304 ft 168 kts 111°
2026-05-06 19:50 -22.01649 -51.84685 8101 ft 158 kts 103°
2026-05-06 19:51 -22.01873 -51.83530 7790 ft 154 kts 96°
2026-05-06 19:51 -22.02198 -51.82441 7512 ft 156 kts 110°
2026-05-06 19:51 -22.02682 -51.81395 7248 ft 155 kts 110°
2026-05-06 19:51 -22.03036 -51.80319 6986 ft 151 kts 105°
2026-05-06 19:52 -22.03386 -51.79234 6702 ft 154 kts 107°
2026-05-06 19:52 -22.03756 -51.78164 6489 ft 149 kts 107°
2026-05-06 19:52 -22.04104 -51.77115 6230 ft 148 kts 104°
2026-05-06 19:52 -22.04392 -51.76041 5935 ft 150 kts 106°
2026-05-06 19:53 -22.04836 -51.75037 5702 ft 149 kts 114°
2026-05-06 19:53 -22.05233 -51.74030 5502 ft 145 kts 104°
2026-05-06 19:53 -22.05530 -51.72967 5227 ft 148 kts 103°
2026-05-06 19:53 -22.05835 -51.71928 5034 ft 145 kts 103°
2026-05-06 19:54 -22.06065 -51.70871 4831 ft 141 kts 95°
2026-05-06 19:54 -22.06294 -51.69863 4523 ft 145 kts 107°
2026-05-06 19:54 -22.06731 -51.68860 4300 ft 147 kts 113°
2026-05-06 19:54 -22.07164 -51.67890 4120 ft 141 kts 109°
2026-05-06 19:55 -22.07551 -51.66921 3906 ft 138 kts 109°
2026-05-06 19:55 -22.07896 -51.65971 3807 ft 137 kts 105°
2026-05-06 19:55 -22.08201 -51.64993 3765 ft 138 kts 104°
2026-05-06 19:55 -22.08512 -51.63979 3625 ft 150 kts 103°
2026-05-06 19:56 -22.08856 -51.62871 3465 ft 161 kts 107°
2026-05-06 19:56 -22.09239 -51.61732 3359 ft 160 kts 105°
2026-05-06 19:56 -22.09578 -51.60603 3248 ft 156 kts 104°
2026-05-06 19:56 -22.09979 -51.59535 3184 ft 153 kts 110°
2026-05-06 19:57 -22.10421 -51.58530 3179 ft 148 kts 111°
2026-05-06 19:57 -22.10844 -51.57545 3169 ft 141 kts 110°
2026-05-06 19:57 -22.11200 -51.56574 3130 ft 136 kts 105°
2026-05-06 19:57 -22.11504 -51.55630 3125 ft 131 kts 106°
2026-05-06 19:58 -22.11781 -51.54713 3108 ft 126 kts 103°
2026-05-06 19:58 -22.11974 -51.53803 3086 ft 120 kts 98°
2026-05-06 19:58 -22.12236 -51.52979 3110 ft 118 kts 112°
2026-05-06 19:58 -22.12635 -51.52204 3010 ft 119 kts 115°
2026-05-06 19:59 -22.13001 -51.51399 2896 ft 121 kts 108°
2026-05-06 19:59 -22.13236 -51.50546 2910 ft 114 kts 101°
2026-05-06 19:59 -22.13599 -51.49820 3004 ft 110 kts 121°
2026-05-06 19:59 -22.14022 -51.49160 3106 ft 107 kts 116°
2026-05-06 20:00 -22.14402 -51.48432 3061 ft 119 kts 113°
2026-05-06 20:00 -22.14899 -51.47638 2830 ft 133 kts 125°
2026-05-06 20:00 -22.15516 -51.46896 2552 ft 128 kts 131°
2026-05-06 20:00 -22.16112 -51.46275 2270 ft 112 kts 130°
2026-05-06 20:01 -22.16624 -51.45728 2129 ft 98 kts 125°
2026-05-06 20:01 -22.17013 -51.45171 1975 ft 89 kts 105°
2026-05-06 20:01 -22.17209 -51.44544 1795 ft 91 kts 100°
2026-05-06 20:01 -22.17314 -51.43856 1609 ft 96 kts 91°
2026-05-06 20:02 -22.17404 -51.43167 1440 ft 84 kts 94°
2026-05-06 20:02 -22.17468 -51.42663 1462 ft 54 kts 100°
2026-05-06 20:02 -22.17509 -51.42343 1470 ft 33 kts 100°
2026-05-06 20:02 -22.17539 -51.42149 1471 ft 21 kts 98°
2026-05-06 20:03 -22.17558 -51.42025 1480 ft 14 kts 102°
2026-05-06 20:03 -22.17574 -51.41925 1482 ft 13 kts 98°
2026-05-06 20:03 -22.17587 -51.41824 1483 ft 14 kts 98°
2026-05-06 20:03 -22.17601 -51.41721 1484 ft 14 kts 98°
2026-05-06 20:04 -22.17618 -51.41615 1486 ft 14 kts 101°
2026-05-06 20:04 -22.17637 -51.41516 1481 ft 12 kts 112°
2026-05-06 20:04 -22.17710 -51.41475 1483 ft 15 kts 193°
2026-05-06 20:04 -22.17772 -51.41576 1487 ft 19 kts 275°
2026-05-06 20:05 -22.17759 -51.41666 1486 ft 9 kts 259°
2026-05-06 20:05 -22.17788 -51.41717 1483 ft 3 kts 243°
2026-05-06 20:06 -22.17788 -51.41716 1483 ft 0 kts 243°
2026-05-06 20:07 -22.17787 -51.41716 1483 ft 0 kts 243°
2026-05-06 20:08 -22.17787 -51.41715 1488 ft 0 kts 243°